Montgomery, NY

2:18 AM EDT on September 18, 2019 (GMT -0400)
Orange County

Weather History for KMGJ - July, 2019

Change the Weather History Date:

Thursday, July 18, 2019

  Actual Average (KSWF) Record (KSWF)
Temperature  
Mean Temperature 72 °F -  
Max Temperature 75 °F 80 °F 96 °F (1999)
Min Temperature 70 °F 60 °F 46 °F (1974)
Cooling Degree Days 8    
Growing Degree Days 22 (Base 50)    
Moisture  
Dew Point 71 °F    
Average Humidity 95    
Maximum Humidity 100    
Minimum Humidity 87    
Precipitation  
Precipitation 0.16 in - - ()
Sea Level Pressure  
Sea Level Pressure 29.91 in    
Wind  
Wind Speed 3 mph (NE)    
Max Wind Speed 12 mph    
Max Gust Speed -    
Visibility 9 miles    
Events Rain    
Averages and records for this station are not official NWS values.
T = Trace of Precipitation, MM = Missing Value Source: NWS Daily Summary

Daily Weather History Graph

Daily Weather History Graph

Search for Another Location

Airport or City:

Astronomy

Jul. 18, 2019 Rise Set
Actual Time 5:38 AM EDT 8:27 PM EDT
Civil Twilight 5:05 AM EDT 9:00 PM EDT
Nautical Twilight 4:24 AM EDT 9:41 PM EDT
Astronomical Twilight 3:37 AM EDT 10:28 PM EDT
Moon 9:50 PM EDT 7:05 AM EDT
Length of Visible Light 15h 54m
Length of Day
14h 48m
Full, 97% of the Moon is Illuminated
Jul 18
Full
Jul 24
Last Quarter
Jul 31
New
Aug 7
First Quarter
Aug 15
Full

Hourly Weather History & Observations

Time (EDT) Temp. Dew Point Humidity Pressure Visibility Wind Dir Wind Speed Gust Speed Precip Events Conditions
12:54 AM 72.0 °F 72.0 °F 100% 29.90 in 10.0 mi Calm Calm - 0.03 in Rain Light Rain
1:18 AM 72.0 °F 72.0 °F 100% 29.89 in 10.0 mi Calm Calm - 0.00 in   Mostly Cloudy
1:37 AM 72.0 °F 72.0 °F 100% 29.89 in 10.0 mi Calm Calm - 0.00 in   Mostly Cloudy
1:54 AM 72.0 °F 71.1 °F 97% 29.88 in 10.0 mi Calm Calm - 0.00 in   Scattered Clouds
2:08 AM 72.0 °F 72.0 °F 100% 29.89 in 10.0 mi Calm Calm - N/A   Mostly Cloudy
2:17 AM 72.0 °F 72.0 °F 100% 29.89 in 10.0 mi Calm Calm - N/A   Mostly Cloudy
2:54 AM 72.0 °F 71.1 °F 97% 29.89 in 10.0 mi Calm Calm - N/A   Overcast
3:01 AM 72.0 °F 71.1 °F 97% 29.90 in 10.0 mi Calm Calm - N/A   Overcast
3:54 AM 72.0 °F 71.1 °F 97% 29.89 in 10.0 mi Calm Calm - N/A   Overcast
4:07 AM 72.0 °F 71.1 °F 97% 29.90 in 10.0 mi Calm Calm - N/A   Overcast
4:54 AM 72.0 °F 72.0 °F 100% 29.90 in 10.0 mi Calm Calm - N/A   Overcast
5:01 AM 72.0 °F 71.1 °F 97% 29.90 in 10.0 mi Calm Calm - N/A   Overcast
5:54 AM 72.0 °F 72.0 °F 100% 29.91 in 10.0 mi Calm Calm - N/A   Overcast
6:40 AM 73.0 °F 72.0 °F 96% 29.92 in 10.0 mi NNE 5.8 mph - N/A   Overcast
6:54 AM 73.0 °F 72.0 °F 96% 29.91 in 8.0 mi NNE 4.6 mph - N/A   Overcast
7:46 AM 72.0 °F 71.1 °F 97% 29.93 in 4.0 mi NNE 5.8 mph - 0.01 in Rain Light Rain
7:54 AM 72.0 °F 71.1 °F 97% 29.92 in 3.0 mi NNE 5.8 mph - 0.03 in Rain Rain
8:54 AM 72.0 °F 71.1 °F 97% 29.93 in 4.0 mi NE 8.1 mph - 0.03 in Rain Light Rain
9:29 AM 72.0 °F 71.1 °F 97% 29.93 in 10.0 mi NE 10.4 mph - 0.00 in Rain Light Rain
9:54 AM 73.0 °F 71.1 °F 93% 29.92 in 10.0 mi NE 8.1 mph - 0.00 in   Overcast
10:14 AM 73.0 °F 72.0 °F 96% 29.93 in 10.0 mi NE 10.4 mph - N/A   Overcast
10:45 AM 73.9 °F 72.0 °F 93% 29.93 in 10.0 mi NE 8.1 mph - N/A   Overcast
10:54 AM 73.9 °F 71.1 °F 91% 29.93 in 10.0 mi NE 6.9 mph - N/A   Overcast
11:54 AM 73.9 °F 71.1 °F 91% 29.92 in 10.0 mi NNE 10.4 mph - 0.02 in   Overcast
12:12 PM 73.9 °F 72.0 °F 93% 29.93 in 4.0 mi NE 8.1 mph - 0.01 in Rain Light Rain
12:23 PM 73.9 °F 72.0 °F 93% 29.93 in 3.0 mi NE 9.2 mph - 0.01 in Rain Light Rain
12:54 PM 75.9 °F 73.0 °F 91% 29.92 in 10.0 mi NNE 9.2 mph - 0.01 in   Overcast
1:54 PM 75.0 °F 73.0 °F 94% 29.91 in 10.0 mi NNE 9.2 mph - N/A   Overcast
2:54 PM 73.9 °F 72.0 °F 93% 29.90 in 10.0 mi NNE 11.5 mph - N/A   Overcast
3:06 PM 73.9 °F 72.0 °F 93% 29.90 in 10.0 mi NNE 10.4 mph - N/A   Overcast
3:37 PM 75.9 °F 72.0 °F 87% 29.90 in 10.0 mi NE 4.6 mph - N/A   Overcast
3:54 PM 75.9 °F 73.0 °F 91% 29.89 in 10.0 mi NNE 3.5 mph - N/A   Overcast
4:47 PM 73.9 °F 72.0 °F 93% 29.90 in 10.0 mi ENE 6.9 mph - 0.00 in Rain Light Rain
4:54 PM 73.9 °F 72.0 °F 93% 29.90 in 10.0 mi NE 5.8 mph - 0.00 in Rain Light Rain
5:07 PM 73.9 °F 73.0 °F 97% 29.90 in 10.0 mi North 6.9 mph - 0.00 in Rain Light Rain
5:16 PM 73.9 °F 73.0 °F 97% 29.91 in 5.0 mi NNE 6.9 mph - 0.00 in Rain Light Rain
5:54 PM 73.0 °F 72.0 °F 96% 29.90 in 3.0 mi NE 9.2 mph - 0.02 in Rain Light Rain
6:20 PM 73.0 °F 72.0 °F 96% 29.91 in 8.0 mi ENE 6.9 mph - 0.02 in Rain Light Rain
6:28 PM 73.0 °F 71.1 °F 93% 29.91 in 10.0 mi ENE 9.2 mph - 0.02 in   Overcast
6:54 PM 72.0 °F 71.1 °F 97% 29.91 in 10.0 mi East 6.9 mph - 0.02 in   Overcast
7:45 PM 72.0 °F 70.0 °F 93% 29.91 in 10.0 mi ENE 4.6 mph - N/A   Overcast
7:54 PM 72.0 °F 70.0 °F 93% 29.90 in 10.0 mi East 5.8 mph - N/A   Overcast
8:26 PM 71.1 °F 70.0 °F 96% 29.91 in 10.0 mi East 4.6 mph - N/A   Overcast
8:49 PM 71.6 °F 69.8 °F 94% 29.90 in 10.0 mi East 4.6 mph - N/A   Overcast
8:54 PM 71.1 °F 69.1 °F 93% 29.90 in 10.0 mi East 3.5 mph - N/A   Overcast
9:54 PM 70.0 °F 69.1 °F 97% 29.90 in 10.0 mi NE 3.5 mph - N/A   Overcast
10:11 PM 71.1 °F 69.1 °F 93% 29.92 in 10.0 mi North 3.5 mph - N/A   Overcast
10:54 PM 71.1 °F 68.0 °F 90% 29.92 in 10.0 mi Calm Calm - N/A   Overcast
11:37 PM 71.1 °F 68.0 °F 90% 29.93 in 10.0 mi Calm Calm - N/A   Overcast
11:52 PM 71.6 °F 68.0 °F 88% 29.93 in 10.0 mi Calm Calm - N/A   Overcast
11:54 PM 71.1 °F 68.0 °F 90% 29.92 in 10.0 mi Calm Calm - N/A   Overcast